Location: Alfortville
(48.8058°N, 2.4204°E)
Time: 03:30:00
(UTC+00:00)

Envisat - Pass Details

Date: 03 December 2022
Orbit: 763 x 765 km, 98.2° (Epoch: 28 January)

Event Time Altitude Azimuth Distance (km) Brightness Sun altitude
Rises 05:58:32 0° 0° (N) 3,246 6.1 -13.5°
Reaches altitude 10° 06:01:47 10° 339° (NNW) 2,315 5.1 -13.0°
Enters shadow 06:03:47 15° 316° (NW) 2,013 4.6 -12.7°
